McKinney, TX

1:58 AM CDT on June 18, 2018 (GMT -0500)
Collin County Regional

Weather History for KTKI - June, 2016

Change the Weather History Date:

Thursday, June 30, 2016

  Actual Average (KADS) Record (KADS)
Temperature  
Mean Temperature 82 °F -  
Max Temperature 93 °F 90 °F 100 °F (1998)
Min Temperature 70 °F 73 °F 69 °F (2001)
Cooling Degree Days 16    
Growing Degree Days 32 (Base 50)    
Moisture  
Dew Point 68 °F    
Average Humidity 65    
Maximum Humidity 97    
Minimum Humidity 38    
Precipitation  
Precipitation 0.00 in - - ()
Sea Level Pressure  
Sea Level Pressure 29.97 in    
Wind  
Wind Speed 3 mph (SE)    
Max Wind Speed 12 mph    
Max Gust Speed -    
Visibility 10 miles    
Events      
Averages and records for this station are not official NWS values.
T = Trace of Precipitation, MM = Missing Value Source: NWS Daily Summary

Daily Weather History Graph

Daily Weather History Graph

Search for Another Location

Airport or City:

Astronomy

Jun. 30, 2016 Rise Set
Actual Time 6:20 AM CDT 8:39 PM CDT
Civil Twilight 5:52 AM CDT 9:08 PM CDT
Nautical Twilight 5:16 AM CDT 9:43 PM CDT
Astronomical Twilight 4:38 AM CDT 10:21 PM CDT
Moon 3:09 AM CDT (6/30) 4:45 PM CDT (6/30)
Length of Visible Light 15h 16m
Length of Day
14h 18m
Waning Crescent, 18% of the Moon is Illuminated
Jun 30
Waning Crescent
Jul 4
New
Jul 11
First Quarter
Jul 19
Full
Jul 26
Last Quarter

Hourly Weather History & Observations

Time (CDT) Temp. Heat Index Dew Point Humidity Pressure Visibility Wind Dir Wind Speed Gust Speed Precip Events Conditions
12:53 AM 73.0 °F - 70.0 °F 90% 29.99 in 10.0 mi North 3.5 mph - N/A   Clear
1:53 AM 75.0 °F - 70.0 °F 84% 29.98 in 10.0 mi Calm Calm - N/A   Clear
2:53 AM 72.0 °F - 69.1 °F 91% 29.98 in 10.0 mi Calm Calm - N/A   Clear
3:53 AM 72.0 °F - 70.0 °F 93% 29.96 in 10.0 mi Calm Calm - N/A   Clear
4:53 AM 71.1 °F - 68.0 °F 90% 29.97 in 10.0 mi Calm Calm - N/A   Clear
5:53 AM 70.0 °F - 69.1 °F 97% 29.99 in 10.0 mi Calm Calm - N/A   Clear
6:53 AM 71.1 °F - 69.1 °F 93% 30.00 in 10.0 mi Calm Calm - N/A   Clear
7:53 AM 77.0 °F - 70.0 °F 79% 30.01 in 10.0 mi Calm Calm - N/A   Clear
8:53 AM 82.0 °F 86.3 °F 71.1 °F 69% 30.02 in 10.0 mi SSE 3.5 mph - N/A   Clear
9:53 AM 84.9 °F 88.8 °F 69.1 °F 59% 30.02 in 10.0 mi SE 5.8 mph - N/A   Clear
10:53 AM 87.1 °F 92.0 °F 70.0 °F 57% 30.01 in 10.0 mi SE 11.5 mph - N/A   Clear
11:53 AM 89.1 °F 92.1 °F 66.9 °F 48% 30.01 in 10.0 mi South 4.6 mph - N/A   Clear
12:53 PM 90.0 °F 92.8 °F 66.9 °F 46% 29.99 in 10.0 mi SSE 8.1 mph - N/A   Clear
1:53 PM 91.9 °F 95.4 °F 66.9 °F 44% 29.98 in 10.0 mi SSE 5.8 mph - N/A   Clear
2:53 PM 91.9 °F 94.5 °F 66.0 °F 42% 29.97 in 10.0 mi ESE 9.2 mph - N/A   Clear
3:53 PM 91.0 °F 93.8 °F 66.0 °F 44% 29.95 in 10.0 mi ESE 6.9 mph - N/A   Clear
4:53 PM 93.0 °F 94.6 °F 64.0 °F 38% 29.94 in 10.0 mi ESE 9.2 mph - N/A   Clear
5:53 PM 91.9 °F 93.3 °F 64.0 °F 39% 29.93 in 10.0 mi ESE 8.1 mph - N/A   Clear
6:53 PM 91.9 °F 94.5 °F 66.0 °F 42% 29.91 in 10.0 mi SSE 6.9 mph - N/A   Clear
7:53 PM 89.1 °F 92.1 °F 66.9 °F 48% 29.92 in 10.0 mi SE 4.6 mph - N/A   Clear
8:53 PM 86.0 °F 89.4 °F 68.0 °F 55% 29.93 in 10.0 mi ESE 5.8 mph - N/A   Clear
9:53 PM 81.0 °F 83.8 °F 68.0 °F 65% 29.95 in 10.0 mi SSE 3.5 mph - N/A   Clear
10:53 PM 80.1 °F 82.3 °F 66.9 °F 64% 29.96 in 10.0 mi SSE 5.8 mph - N/A   Clear
11:53 PM 78.1 °F - 68.0 °F 71% 29.96 in 10.0 mi Calm Calm - N/A   Clear